Time,TemperatureF,DewpointF,PressureIn,WindDirection,WindDirectionDegrees,WindSpeedMPH,WindSpeedGustMPH,Humidity,HourlyPrecipIn,Conditions,Clouds,dailyrainin,SoftwareType,DateUTC
2013-03-02 00:02:00,27.0,22.0,30.14,NNE,29,5.0,13.0,80,0.00,,,0.00,,2013-03-02 05:02:00,
2013-03-02 00:12:00,27.0,22.0,30.14,NNE,29,5.0,13.0,80,0.00,,,0.00,,2013-03-02 05:12:00,
2013-03-02 00:22:00,27.0,22.0,30.14,North,5,4.0,7.0,80,0.00,,,0.00,,2013-03-02 05:22:00,
2013-03-02 00:32:00,27.0,22.0,30.14,NNE,17,2.0,9.0,81,0.00,,,0.00,,2013-03-02 05:32:00,
2013-03-02 00:42:00,27.0,22.0,30.14,NNE,17,2.0,9.0,81,0.00,,,0.00,,2013-03-02 05:42:00,
2013-03-02 00:52:00,27.0,22.0,30.14,North,355,3.0,5.0,81,0.00,,,0.00,,2013-03-02 05:52:00,
2013-03-02 01:01:00,27.0,22.0,30.14,North,5,4.0,6.0,81,0.00,,,0.00,,2013-03-02 06:01:00,
2013-03-02 01:11:00,27.0,22.0,30.14,North,5,4.0,6.0,81,0.00,,,0.00,,2013-03-02 06:11:00,
2013-03-02 01:21:00,27.0,22.0,30.14,North,360,3.0,5.0,81,0.00,,,0.00,,2013-03-02 06:21:00,
2013-03-02 01:32:00,27.0,22.0,30.14,NNE,16,4.0,6.0,81,0.00,,,0.00,,2013-03-02 06:32:00,
2013-03-02 01:42:00,27.0,22.0,30.14,NNE,16,4.0,6.0,81,0.00,,,0.00,,2013-03-02 06:42:00,
2013-03-02 01:52:00,27.0,22.0,30.14,NNE,12,5.0,12.0,80,0.00,,,0.00,,2013-03-02 06:52:00,
2013-03-02 02:01:00,27.0,21.0,30.14,North,9,7.0,11.0,79,0.00,,,0.00,,2013-03-02 07:01:00,
2013-03-02 02:11:00,27.0,21.0,30.14,North,9,7.0,11.0,79,0.00,,,0.00,,2013-03-02 07:11:00,
2013-03-02 02:21:00,27.0,22.0,30.14,NNE,17,4.0,11.0,80,0.00,,,0.00,,2013-03-02 07:21:00,
2013-03-02 02:32:00,27.0,22.0,30.14,North,9,4.0,7.0,81,0.00,,,0.00,,2013-03-02 07:32:00,
2013-03-02 02:42:00,27.0,22.0,30.14,North,9,4.0,7.0,81,0.00,,,0.00,,2013-03-02 07:42:00,
2013-03-02 02:52:00,27.0,22.0,30.14,NNW,347,2.0,5.0,81,0.00,,,0.00,,2013-03-02 07:52:00,
2013-03-02 03:01:00,27.0,22.0,30.14,North,5,3.0,6.0,82,0.00,,,0.00,,2013-03-02 08:01:00,
2013-03-02 03:11:00,27.0,22.0,30.14,North,5,3.0,6.0,82,0.00,,,0.00,,2013-03-02 08:11:00,
2013-03-02 03:22:00,27.0,22.0,30.14,NNW,346,3.0,8.0,82,0.00,,,0.00,,2013-03-02 08:22:00,
2013-03-02 03:32:00,27.0,22.0,30.13,North,360,3.0,9.0,81,0.00,,,0.00,,2013-03-02 08:32:00,
2013-03-02 03:42:00,27.0,22.0,30.13,North,360,3.0,9.0,81,0.00,,,0.00,,2013-03-02 08:42:00,
2013-03-02 03:52:00,27.0,22.0,30.13,North,355,2.0,6.0,81,0.00,,,0.00,,2013-03-02 08:52:00,
2013-03-02 04:02:00,27.0,22.0,30.13,North,355,1.0,6.0,80,0.00,,,0.00,,2013-03-02 09:02:00,
2013-03-02 04:11:00,27.0,22.0,30.13,North,355,1.0,6.0,80,0.00,,,0.00,,2013-03-02 09:11:00,
2013-03-02 04:22:00,27.0,22.0,30.12,North,10,4.0,6.0,80,0.00,,,0.00,,2013-03-02 09:22:00,
2013-03-02 04:32:00,27.0,22.0,30.12,North,355,3.0,7.0,80,0.00,,,0.00,,2013-03-02 09:32:00,
2013-03-02 04:42:00,27.0,22.0,30.12,North,355,3.0,7.0,80,0.00,,,0.00,,2013-03-02 09:42:00,
2013-03-02 04:52:00,27.0,22.0,30.12,NNW,348,2.0,8.0,80,0.00,,,0.00,,2013-03-02 09:52:00,
2013-03-02 05:01:00,26.0,20.0,30.13,NNW,331,2.0,5.0,79,0.00,,,0.00,,2013-03-02 10:01:00,
2013-03-02 05:16:00,26.0,20.0,30.13,NNW,331,2.0,5.0,79,0.00,,,0.00,,2013-03-02 10:16:00,
2013-03-02 05:22:00,26.0,20.0,30.13,North,5,3.0,7.0,79,0.00,,,0.00,,2013-03-02 10:22:00,
2013-03-02 05:32:00,26.0,21.0,30.13,NNW,346,2.0,7.0,80,0.00,,,0.00,,2013-03-02 10:32:00,
2013-03-02 05:43:00,26.0,21.0,30.13,NNW,346,2.0,7.0,80,0.00,,,0.00,,2013-03-02 10:43:00,
2013-03-02 05:52:00,26.0,21.0,30.12,NNE,13,2.0,9.0,80,0.00,,,0.00,,2013-03-02 10:52:00,
2013-03-02 06:01:00,26.0,21.0,30.13,North,355,2.0,5.0,80,0.00,,,0.00,,2013-03-02 11:01:00,
2013-03-02 06:11:00,26.0,21.0,30.13,North,355,2.0,5.0,80,0.00,,,0.00,,2013-03-02 11:11:00,
2013-03-02 06:21:00,26.0,21.0,30.12,NNW,331,1.0,4.0,81,0.00,,,0.00,,2013-03-02 11:21:00,
2013-03-02 06:32:00,26.0,21.0,30.12,WNW,292,2.0,5.0,82,0.00,,,0.00,,2013-03-02 11:32:00,
2013-03-02 06:42:00,26.0,21.0,30.12,WNW,292,2.0,5.0,82,0.00,,,0.00,,2013-03-02 11:42:00,
2013-03-02 06:52:00,26.0,21.0,30.13,WNW,296,0.0,4.0,82,0.00,,,0.00,,2013-03-02 11:52:00,
2013-03-02 07:02:00,26.0,21.0,30.13,WNW,296,0.0,4.0,82,0.00,,,0.00,,2013-03-02 12:02:00,
2013-03-02 07:11:00,26.0,21.0,30.13,WNW,296,0.0,4.0,82,0.00,,,0.00,,2013-03-02 12:11:00,
2013-03-02 07:22:00,26.0,21.0,30.13,NNW,337,0.0,3.0,82,0.00,,,0.00,,2013-03-02 12:22:00,
2013-03-02 07:33:00,26.0,21.0,30.14,North,355,2.0,5.0,82,0.00,,,0.00,,2013-03-02 12:33:00,
2013-03-02 07:43:00,26.0,21.0,30.14,North,355,2.0,5.0,82,0.00,,,0.00,,2013-03-02 12:43:00,
2013-03-02 07:53:00,26.0,21.0,30.14,WNW,292,3.0,6.0,82,0.00,,,0.00,,2013-03-02 12:53:00,
2013-03-02 08:01:00,26.0,22.0,30.14,West,277,3.0,6.0,83,0.00,,,0.00,,2013-03-02 13:01:00,
2013-03-02 08:11:00,26.0,22.0,30.14,West,277,3.0,6.0,83,0.00,,,0.00,,2013-03-02 13:11:00,
2013-03-02 08:22:00,26.0,22.0,30.14,WNW,298,2.0,6.0,83,0.00,,,0.00,,2013-03-02 13:22:00,
2013-03-02 08:32:00,26.0,21.0,30.14,NW,322,4.0,10.0,82,0.00,,,0.00,,2013-03-02 13:32:00,
2013-03-02 08:42:00,26.0,21.0,30.14,NW,322,4.0,10.0,82,0.00,,,0.00,,2013-03-02 13:42:00,
2013-03-02 08:52:00,26.0,21.0,30.15,NW,323,3.0,8.0,81,0.00,,,0.00,,2013-03-02 13:52:00,
2013-03-02 09:01:00,26.0,21.0,30.15,NW,310,2.0,8.0,82,0.00,,,0.00,,2013-03-02 14:01:00,
2013-03-02 09:11:00,26.0,21.0,30.15,NW,310,2.0,8.0,82,0.00,,,0.00,,2013-03-02 14:11:00,
2013-03-02 09:22:00,26.0,21.0,30.15,NW,310,2.0,8.0,82,0.00,,,0.00,,2013-03-02 14:22:00,
2013-03-02 09:32:00,26.0,21.0,30.14,WNW,290,5.0,9.0,82,0.00,,,0.00,,2013-03-02 14:32:00,
2013-03-02 09:42:00,26.0,21.0,30.14,WNW,290,5.0,9.0,82,0.00,,,0.00,,2013-03-02 14:42:00,
2013-03-02 09:52:00,27.0,22.0,30.14,NW,325,2.0,11.0,82,0.00,,,0.00,,2013-03-02 14:52:00,
2013-03-02 10:02:00,27.0,22.0,30.14,NNW,345,3.0,8.0,82,0.00,,,0.00,,2013-03-02 15:02:00,
2013-03-02 10:11:00,27.0,22.0,30.14,NNW,345,3.0,8.0,82,0.00,,,0.00,,2013-03-02 15:11:00,
2013-03-02 10:22:00,26.0,22.0,30.14,NNW,340,5.0,9.0,83,0.00,,,0.00,,2013-03-02 15:22:00,
2013-03-02 10:32:00,27.0,22.0,30.14,West,262,3.0,7.0,82,0.00,,,0.00,,2013-03-02 15:32:00,
2013-03-02 10:42:00,27.0,22.0,30.14,West,262,3.0,7.0,82,0.00,,,0.00,,2013-03-02 15:42:00,
2013-03-02 10:52:00,27.0,22.0,30.14,WNW,297,3.0,8.0,82,0.00,,,0.00,,2013-03-02 15:52:00,
2013-03-02 11:02:00,27.0,22.0,30.14,WNW,293,4.0,9.0,80,0.00,,,0.00,,2013-03-02 16:02:00,
2013-03-02 11:11:00,27.0,22.0,30.14,WNW,293,4.0,9.0,80,0.00,,,0.00,,2013-03-02 16:11:00,
2013-03-02 11:21:00,28.0,23.0,30.14,WNW,285,2.0,7.0,80,0.00,,,0.00,,2013-03-02 16:21:00,
2013-03-02 11:32:00,28.0,22.0,30.13,WNW,292,1.0,10.0,79,0.00,,,0.00,,2013-03-02 16:32:00,
2013-03-02 11:42:00,28.0,22.0,30.13,WNW,292,1.0,10.0,79,0.00,,,0.00,,2013-03-02 16:42:00,
2013-03-02 11:52:00,28.0,22.0,30.13,West,272,4.0,11.0,79,0.00,,,0.00,,2013-03-02 16:52:00,
2013-03-02 12:01:00,28.0,22.0,30.12,WNW,286,4.0,9.0,79,0.00,,,0.00,,2013-03-02 17:01:00,
2013-03-02 12:11:00,28.0,22.0,30.12,WNW,286,4.0,9.0,79,0.00,,,0.00,,2013-03-02 17:11:00,
2013-03-02 12:21:00,28.0,21.0,30.13,NNE,18,3.0,8.0,76,0.00,,,0.00,,2013-03-02 17:21:00,
2013-03-02 12:32:00,29.0,22.0,30.12,NNW,344,4.0,8.0,76,0.00,,,0.00,,2013-03-02 17:32:00,
2013-03-02 12:42:00,29.0,22.0,30.12,NNW,344,4.0,8.0,76,0.00,,,0.00,,2013-03-02 17:42:00,
2013-03-02 12:52:00,29.0,22.0,30.12,NNW,334,4.0,11.0,76,0.00,,,0.00,,2013-03-02 17:52:00,
2013-03-02 13:02:00,29.0,21.0,30.11,NW,320,4.0,10.0,73,0.00,,,0.00,,2013-03-02 18:02:00,
2013-03-02 13:11:00,29.0,21.0,30.11,NW,320,4.0,10.0,73,0.00,,,0.00,,2013-03-02 18:11:00,
2013-03-02 13:22:00,29.0,21.0,30.11,North,351,4.0,8.0,72,0.00,,,0.00,,2013-03-02 18:22:00,
2013-03-02 13:32:00,29.0,21.0,30.11,North,355,4.0,9.0,72,0.00,,,0.00,,2013-03-02 18:32:00,
2013-03-02 13:42:00,29.0,21.0,30.11,North,355,4.0,9.0,72,0.00,,,0.00,,2013-03-02 18:42:00,
2013-03-02 13:52:00,30.0,22.0,30.10,NNW,336,4.0,13.0,72,0.00,,,0.00,,2013-03-02 18:52:00,
2013-03-02 14:01:00,30.0,22.0,30.10,NNW,331,3.0,10.0,71,0.00,,,0.00,,2013-03-02 19:01:00,
2013-03-02 14:12:00,30.0,22.0,30.10,NNW,331,3.0,10.0,71,0.00,,,0.00,,2013-03-02 19:12:00,
2013-03-02 14:22:00,30.0,22.0,30.10,West,275,3.0,8.0,71,0.00,,,0.00,,2013-03-02 19:22:00,
2013-03-02 14:32:00,29.0,21.0,30.10,North,5,4.0,8.0,72,0.00,,,0.00,,2013-03-02 19:32:00,
2013-03-02 14:42:00,29.0,21.0,30.10,North,5,4.0,8.0,72,0.00,,,0.00,,2013-03-02 19:42:00,
2013-03-02 14:52:00,29.0,21.0,30.10,NNW,327,4.0,10.0,71,0.00,,,0.00,,2013-03-02 19:52:00,
2013-03-02 15:01:00,29.0,21.0,30.10,NNE,12,4.0,8.0,71,0.00,,,0.00,,2013-03-02 20:01:00,
2013-03-02 15:11:00,29.0,21.0,30.10,NNE,12,4.0,8.0,71,0.00,,,0.00,,2013-03-02 20:11:00,
2013-03-02 15:22:00,29.0,21.0,30.10,NW,304,4.0,9.0,72,0.00,,,0.00,,2013-03-02 20:22:00,
2013-03-02 15:32:00,29.0,21.0,30.10,North,5,1.0,12.0,71,0.00,,,0.00,,2013-03-02 20:32:00,
2013-03-02 15:42:00,29.0,21.0,30.10,North,5,1.0,12.0,71,0.00,,,0.00,,2013-03-02 20:42:00,
2013-03-02 15:53:00,29.0,21.0,30.10,NNW,347,4.0,7.0,73,0.00,,,0.00,,2013-03-02 20:53:00,
2013-03-02 16:02:00,29.0,21.0,30.10,NNW,333,3.0,10.0,71,0.00,,,0.00,,2013-03-02 21:02:00,
2013-03-02 16:11:00,29.0,21.0,30.10,NNW,333,3.0,10.0,71,0.00,,,0.00,,2013-03-02 21:11:00,
2013-03-02 16:22:00,29.0,21.0,30.10,NNW,338,2.0,7.0,72,0.00,,,0.00,,2013-03-02 21:22:00,
2013-03-02 16:32:00,29.0,21.0,30.11,WNW,283,2.0,8.0,72,0.00,,,0.00,,2013-03-02 21:32:00,
2013-03-02 16:42:00,29.0,21.0,30.11,WNW,283,2.0,8.0,72,0.00,,,0.00,,2013-03-02 21:42:00,
2013-03-02 16:52:00,29.0,21.0,30.11,NW,312,4.0,8.0,73,0.00,,,0.00,,2013-03-02 21:52:00,
2013-03-02 17:02:00,28.0,20.0,30.11,North,9,5.0,10.0,72,0.00,,,0.00,,2013-03-02 22:02:00,
2013-03-02 17:11:00,28.0,20.0,30.11,North,9,5.0,10.0,72,0.00,,,0.00,,2013-03-02 22:11:00,
2013-03-02 17:22:00,28.0,20.0,30.11,North,351,4.0,7.0,73,0.00,,,0.00,,2013-03-02 22:22:00,
2013-03-02 17:32:00,28.0,20.0,30.11,North,360,2.0,9.0,73,0.00,,,0.00,,2013-03-02 22:32:00,
2013-03-02 17:42:00,28.0,20.0,30.11,North,360,2.0,9.0,73,0.00,,,0.00,,2013-03-02 22:42:00,
2013-03-02 17:52:00,28.0,20.0,30.11,NNE,12,5.0,10.0,73,0.00,,,0.00,,2013-03-02 22:52:00,
2013-03-02 18:01:00,28.0,21.0,30.12,North,360,4.0,6.0,74,0.00,,,0.00,,2013-03-02 23:01:00,
2013-03-02 18:11:00,28.0,21.0,30.12,North,360,2.0,7.0,75,0.00,,,0.00,,2013-03-02 23:11:00,
2013-03-02 18:21:00,28.0,21.0,30.12,North,360,2.0,7.0,75,0.00,,,0.00,,2013-03-02 23:21:00,
2013-03-02 18:32:00,28.0,21.0,30.12,NW,313,2.0,7.0,75,0.00,,,0.00,,2013-03-02 23:32:00,
2013-03-02 18:42:00,28.0,21.0,30.12,NW,313,2.0,7.0,75,0.00,,,0.00,,2013-03-02 23:42:00,
2013-03-02 18:52:00,28.0,21.0,30.12,NW,304,3.0,8.0,75,0.00,,,0.00,,2013-03-02 23:52:00,
2013-03-02 19:02:00,27.0,20.0,30.13,NW,325,2.0,7.0,75,0.00,,,0.00,,2013-03-03 00:02:00,
2013-03-02 19:11:00,27.0,20.0,30.13,NW,325,2.0,7.0,75,0.00,,,0.00,,2013-03-03 00:11:00,
2013-03-02 19:22:00,27.0,20.0,30.14,NNW,344,2.0,7.0,75,0.00,,,0.00,,2013-03-03 00:22:00,
2013-03-02 19:32:00,27.0,20.0,30.14,NNW,331,2.0,8.0,75,0.00,,,0.00,,2013-03-03 00:32:00,
2013-03-02 19:42:00,27.0,20.0,30.14,NNW,331,2.0,8.0,75,0.00,,,0.00,,2013-03-03 00:42:00,
2013-03-02 19:52:00,27.0,20.0,30.14,NNW,346,2.0,6.0,75,0.00,,,0.00,,2013-03-03 00:52:00,
2013-03-02 20:01:00,27.0,20.0,30.14,NW,316,2.0,7.0,76,0.00,,,0.00,,2013-03-03 01:01:00,
2013-03-02 20:11:00,27.0,20.0,30.14,NW,316,2.0,7.0,76,0.00,,,0.00,,2013-03-03 01:11:00,
2013-03-02 20:21:00,27.0,21.0,30.13,North,355,3.0,6.0,77,0.00,,,0.00,,2013-03-03 01:21:00,
2013-03-02 20:32:00,27.0,21.0,30.13,NNW,341,0.0,5.0,77,0.00,,,0.00,,2013-03-03 01:32:00,
2013-03-02 20:42:00,27.0,21.0,30.13,NNW,341,0.0,5.0,77,0.00,,,0.00,,2013-03-03 01:42:00,
2013-03-02 20:52:00,27.0,21.0,30.13,West,275,3.0,7.0,77,0.00,,,0.00,,2013-03-03 01:52:00,
2013-03-02 21:01:00,27.0,21.0,30.13,NNW,333,2.0,5.0,77,0.00,,,0.00,,2013-03-03 02:01:00,
2013-03-02 21:11:00,27.0,21.0,30.13,NNW,333,2.0,5.0,77,0.00,,,0.00,,2013-03-03 02:11:00,
2013-03-02 21:21:00,27.0,20.0,30.13,NW,304,4.0,7.0,76,0.00,,,0.00,,2013-03-03 02:21:00,
2013-03-02 21:32:00,27.0,21.0,30.13,NW,317,1.0,8.0,77,0.00,,,0.00,,2013-03-03 02:32:00,
2013-03-02 21:42:00,27.0,21.0,30.13,NW,317,1.0,8.0,77,0.00,,,0.00,,2013-03-03 02:42:00,
2013-03-02 21:52:00,26.0,20.0,30.13,North,350,1.0,5.0,77,0.00,,,0.00,,2013-03-03 02:52:00,
2013-03-02 22:01:00,27.0,21.0,30.13,North,5,2.0,6.0,77,0.00,,,0.00,,2013-03-03 03:01:00,
2013-03-02 22:11:00,27.0,21.0,30.13,North,5,2.0,6.0,77,0.00,,,0.00,,2013-03-03 03:11:00,
2013-03-02 22:22:00,26.0,20.0,30.13,NNW,334,2.0,8.0,77,0.00,,,0.00,,2013-03-03 03:22:00,
2013-03-02 22:32:00,26.0,20.0,30.13,WNW,294,2.0,7.0,79,0.00,,,0.00,,2013-03-03 03:32:00,
2013-03-02 22:42:00,26.0,20.0,30.13,WNW,294,2.0,7.0,79,0.00,,,0.00,,2013-03-03 03:42:00,
2013-03-02 22:52:00,26.0,20.0,30.13,WNW,294,2.0,7.0,79,0.00,,,0.00,,2013-03-03 03:52:00,
2013-03-02 23:01:00,25.0,19.0,30.13,NNW,345,3.0,7.0,77,0.00,,,0.00,,2013-03-03 04:01:00,
2013-03-02 23:11:00,25.0,19.0,30.13,NNW,345,3.0,7.0,77,0.00,,,0.00,,2013-03-03 04:11:00,
2013-03-02 23:22:00,25.0,19.0,30.12,NW,323,1.0,6.0,77,0.00,,,0.00,,2013-03-03 04:22:00,
2013-03-02 23:32:00,25.0,19.0,30.12,WNW,302,1.0,5.0,78,0.00,,,0.00,,2013-03-03 04:32:00,
2013-03-02 23:42:00,25.0,19.0,30.12,WNW,302,1.0,5.0,78,0.00,,,0.00,,2013-03-03 04:42:00,
2013-03-02 23:52:00,24.0,18.0,30.12,WNW,300,2.0,5.0,78,0.00,,,0.00,,2013-03-03 04:52:00,